TimeCDT,TemperatureF,Dew PointF,Humidity,Sea Level PressureIn,VisibilityMPH,Wind Direction,Wind SpeedMPH,Gust SpeedMPH,PrecipitationIn,Events,Conditions,WindDirDegrees,DateUTC
12:15 AM,59.9,57.9,93,29.90,10.0,Calm,Calm,-,N/A,,Clear,0,2012-09-26 05:15:00
12:35 AM,58.8,57.4,95,29.90,7.0,Calm,Calm,-,N/A,,Clear,0,2012-09-26 05:35:00
12:55 AM,59.0,58.1,97,29.89,7.0,Calm,Calm,-,N/A,,Clear,0,2012-09-26 05:55:00
1:15 AM,58.6,57.6,96,29.89,4.0,Calm,Calm,-,N/A,,Clear,0,2012-09-26 06:15:00
1:35 AM,57.9,57.0,97,29.89,0.5,Calm,Calm,-,N/A,Fog,Fog,0,2012-09-26 06:35:00
1:55 AM,57.0,55.8,96,29.89,0.2,Calm,Calm,-,N/A,Fog,Fog,0,2012-09-26 06:55:00
2:15 AM,55.0,54.0,96,29.88,0.5,Calm,Calm,-,N/A,Fog,Fog,0,2012-09-26 07:15:00
2:35 AM,55.9,55.2,97,29.88,0.2,Calm,Calm,-,N/A,Fog,Fog,0,2012-09-26 07:35:00
2:55 AM,57.2,55.4,94,29.88,0.2,Calm,Calm,-,N/A,Fog,Fog,0,2012-09-26 07:55:00
3:15 AM,55.2,54.7,98,29.89,0.2,SW,3.5,-,N/A,Fog,Fog,220,2012-09-26 08:15:00
3:35 AM,57.4,57.2,99,29.90,0.8,South,3.5,-,N/A,,Mostly Cloudy,190,2012-09-26 08:35:00
3:55 AM,58.1,57.6,98,29.90,0.2,SW,3.5,-,N/A,Fog,Fog,230,2012-09-26 08:55:00
4:15 AM,60.4,60.4,100,29.91,2.5,WNW,5.8,-,N/A,,Scattered Clouds,300,2012-09-26 09:15:00
4:35 AM,59.2,58.6,98,29.91,0.5,NNW,4.6,-,N/A,Fog,Fog,330,2012-09-26 09:35:00
4:55 AM,60.3,59.7,98,29.90,0.5,North,4.6,-,N/A,Fog,Fog,10,2012-09-26 09:55:00
5:15 AM,58.1,57.2,97,29.90,1.5,North,5.8,-,N/A,,Mostly Cloudy,360,2012-09-26 10:15:00
5:35 AM,57.0,56.3,97,29.91,0.2,Calm,Calm,-,N/A,Fog,Fog,0,2012-09-26 10:35:00
5:55 AM,55.6,54.7,97,29.91,0.2,North,3.5,-,N/A,Fog,Fog,360,2012-09-26 10:55:00
6:15 AM,55.6,55.0,98,29.91,3.0,North,4.6,-,N/A,,Scattered Clouds,10,2012-09-26 11:15:00
6:35 AM,55.6,55.0,98,29.93,2.5,Calm,Calm,-,N/A,,Clear,0,2012-09-26 11:35:00
6:55 AM,55.6,54.7,97,29.94,3.0,North,9.2,-,N/A,,Clear,360,2012-09-26 11:55:00
7:15 AM,55.4,54.5,97,29.94,5.0,North,8.1,-,N/A,,Clear,10,2012-09-26 12:15:00
7:35 AM,55.0,53.8,96,29.95,7.0,North,8.1,-,N/A,,Clear,10,2012-09-26 12:35:00
7:55 AM,54.9,53.1,94,29.96,10.0,NNE,5.8,-,N/A,,Clear,20,2012-09-26 12:55:00
8:15 AM,55.6,52.9,91,29.96,10.0,NNE,8.1,-,N/A,,Clear,30,2012-09-26 13:15:00
8:35 AM,56.5,52.5,87,29.96,10.0,NNE,10.4,-,N/A,,Clear,30,2012-09-26 13:35:00
8:55 AM,57.6,52.9,84,29.97,10.0,NE,8.1,-,N/A,,Clear,40,2012-09-26 13:55:00
9:15 AM,59.9,54.0,81,29.98,10.0,NE,8.1,-,N/A,,Clear,50,2012-09-26 14:15:00
9:35 AM,61.9,54.7,77,29.99,10.0,ENE,6.9,-,N/A,,Clear,60,2012-09-26 14:35:00
9:55 AM,62.6,54.9,76,30.00,10.0,NE,10.4,-,N/A,,Clear,50,2012-09-26 14:55:00
10:15 AM,63.1,55.0,75,30.01,10.0,NE,6.9,-,N/A,,Clear,50,2012-09-26 15:15:00
10:35 AM,64.8,55.6,72,30.02,10.0,ENE,6.9,-,N/A,,Clear,60,2012-09-26 15:35:00
11:35 AM,68.5,56.7,66,30.01,10.0,NNE,8.1,-,N/A,,Clear,30,2012-09-26 16:35:00
11:55 AM,70.2,56.7,62,30.02,10.0,ENE,8.1,-,N/A,,Clear,70,2012-09-26 16:55:00
12:15 PM,71.4,55.2,57,30.02,10.0,NE,9.2,-,N/A,,Clear,40,2012-09-26 17:15:00
12:35 PM,71.1,54.7,56,30.01,10.0,NE,9.2,-,N/A,,Clear,50,2012-09-26 17:35:00
12:55 PM,71.8,55.4,56,30.01,10.0,NE,6.9,-,N/A,,Clear,40,2012-09-26 17:55:00
1:15 PM,72.7,54.0,52,30.01,10.0,ENE,9.2,-,N/A,,Clear,60,2012-09-26 18:15:00
1:35 PM,73.4,53.8,50,30.01,10.0,NNE,6.9,-,N/A,,Clear,30,2012-09-26 18:35:00
1:55 PM,74.1,52.0,46,30.01,10.0,NNE,6.9,-,N/A,,Clear,30,2012-09-26 18:55:00
2:15 PM,74.3,53.2,48,30.02,10.0,NNE,4.6,-,N/A,,Clear,20,2012-09-26 19:15:00
2:35 PM,73.9,50.5,44,30.02,10.0,North,4.6,-,N/A,,Clear,350,2012-09-26 19:35:00
2:55 PM,74.3,51.6,45,30.01,10.0,North,5.8,-,N/A,,Clear,10,2012-09-26 19:55:00
3:15 PM,74.8,50.7,43,30.01,10.0,North,4.6,-,N/A,,Clear,350,2012-09-26 20:15:00
3:35 PM,73.0,51.6,47,30.01,10.0,North,9.2,-,N/A,,Clear,360,2012-09-26 20:35:00
3:55 PM,72.9,51.8,47,30.01,10.0,North,6.9,-,N/A,,Clear,10,2012-09-26 20:55:00
4:15 PM,71.6,52.5,51,30.01,10.0,North,6.9,-,N/A,,Clear,350,2012-09-26 21:15:00
4:35 PM,70.9,50.5,48,30.02,10.0,North,6.9,-,N/A,,Clear,360,2012-09-26 21:35:00
4:55 PM,69.8,48.2,46,30.02,10.0,North,9.2,-,N/A,,Clear,360,2012-09-26 21:55:00
5:15 PM,70.0,48.4,46,30.03,10.0,North,8.1,-,N/A,,Clear,360,2012-09-26 22:15:00
5:35 PM,70.2,49.5,48,30.03,10.0,North,8.1,-,N/A,,Clear,360,2012-09-26 22:35:00
5:55 PM,68.9,50.0,51,30.04,10.0,North,6.9,-,N/A,,Clear,360,2012-09-26 22:55:00
6:15 PM,67.3,50.2,54,30.04,10.0,North,5.8,-,N/A,,Clear,360,2012-09-26 23:15:00
6:35 PM,64.4,50.0,59,30.05,10.0,North,5.8,-,N/A,,Clear,360,2012-09-26 23:35:00
6:55 PM,62.1,49.3,63,30.05,10.0,NNW,6.9,-,N/A,,Clear,340,2012-09-26 23:55:00
7:15 PM,59.7,49.3,68,30.05,10.0,North,4.6,-,N/A,,Clear,350,2012-09-27 00:15:00
7:35 PM,57.9,48.4,71,30.07,10.0,North,4.6,-,N/A,,Clear,350,2012-09-27 00:35:00
7:55 PM,57.6,48.2,71,30.08,10.0,North,5.8,-,N/A,,Clear,10,2012-09-27 00:55:00
8:15 PM,53.6,46.4,77,30.08,10.0,North,6.9,-,N/A,,Clear,10,2012-09-27 01:15:00
8:35 PM,54.0,46.9,77,30.09,10.0,North,4.6,-,N/A,,Clear,10,2012-09-27 01:35:00
8:55 PM,53.6,46.2,76,30.09,10.0,North,6.9,-,N/A,,Clear,10,2012-09-27 01:55:00
9:15 PM,52.9,45.7,77,30.10,10.0,NNE,4.6,-,N/A,,Clear,20,2012-09-27 02:15:00
9:35 PM,52.2,44.8,76,30.10,10.0,North,5.8,-,N/A,,Clear,10,2012-09-27 02:35:00
9:55 PM,52.3,44.6,75,30.11,10.0,North,6.9,-,N/A,,Clear,10,2012-09-27 02:55:00
10:15 PM,52.7,44.8,74,30.11,10.0,NNE,8.1,-,N/A,,Clear,20,2012-09-27 03:15:00
10:35 PM,53.1,44.8,73,30.11,10.0,NNE,9.2,-,N/A,,Clear,20,2012-09-27 03:35:00
10:55 PM,54.7,45.5,71,30.12,10.0,NE,9.2,-,N/A,,Clear,40,2012-09-27 03:55:00
11:15 PM,54.7,46.4,74,30.13,10.0,NE,6.9,-,N/A,,Clear,50,2012-09-27 04:15:00
11:35 PM,54.0,46.6,76,30.13,10.0,NE,6.9,-,N/A,,Clear,50,2012-09-27 04:35:00
11:55 PM,53.8,47.3,79,30.13,10.0,NE,6.9,-,N/A,,Clear,50,2012-09-27 04:55:00